Location: ??
(36.7391°N, 127.5151°E)
Time: 12:12:31
(UTC+00:00)

Cosmos 2082 Rocket - Pass Details

Date: 07 June 2020
Orbit: 832 x 854 km, 71.0° (Epoch: 14 July)

Event Time Altitude Azimuth Distance (km) Brightness Sun altitude
Rises 11:41:06 0° 332° (NNW) 3,426 6.7 -9.8°
Reaches altitude 10° 11:43:37 10° 328° (NNW) 2,485 6.0 -10.2°
Maximum altitude 11:49:07 52° 254° (WSW) 1,048 2.9 -11.1°
Drops below altitude 10° 11:54:35 10° 179° (S) 2,457 4.2 -11.9°
Enters shadow 11:55:45 - 176° (S) 2,893 4.6 -12.1°
